Weather History for Aiken, SC

Change the Weather History Date:

Wednesday, February 19, 2014

  Actual Average Record
Temperature  
Mean Temperature 66 °F -  
Max Temperature 78 °F 63 °F 78 °F (2014)
Min Temperature 55 °F 38 °F 35 °F (2013)
Cooling Degree Days 2    
Growing Degree Days 16 (Base 50)    
Moisture  
Dew Point 57 °F    
Average Humidity 77    
Maximum Humidity 100    
Minimum Humidity 44    
Precipitation  
Precipitation 0.00 in - - ()
Sea Level Pressure  
Sea Level Pressure 30.08 in    
Wind  
Wind Speed 9 mph (SW)    
Max Wind Speed 21 mph    
Max Gust Speed 28 mph    
Visibility 10 miles    
Events      
Averages and records for this station are not official NWS values.
T = Trace of Precipitation, MM = Missing Value Source: NWS Daily Summary

Daily Weather History Graph

Daily Weather History Graph

Search for Another Location

Airport:

Trip Planner

Search our weather history database for the weather conditions in past years. The results will help you decide how hot, cold, wet, or windy it might be!

Date:

Astronomy

Feb. 19, 2014 Rise Set
Actual Time 7:06 AM EST 6:14 PM EST
Civil Twilight 6:41 AM EST 6:40 PM EST
Nautical Twilight 6:12 AM EST 7:09 PM EST
Astronomical Twilight 5:43 AM EST 7:38 PM EST
Moon 10:50 PM EST (2/19) 9:26 AM EST (2/19)
Length of Visible Light 11h 58m
Length of Day
11h 08m
Waning Gibbous, 80% of the Moon is Illuminated
Feb 19
Waning Gibbous
Feb 22
Last Quarter
Mar 1
New
Mar 8
First Quarter
Mar 16
Full

Hourly Weather History & Observations

Time (EST) Temp. Dew Point Humidity Pressure Visibility Wind Dir Wind Speed Gust Speed Precip Events Conditions
12:15 AM 60.8 °F 57.2 °F 88% 30.10 in 10.0 mi South 6.9 mph - N/A   Mostly Cloudy
12:55 AM 57.2 °F 55.4 °F 94% 30.11 in 10.0 mi Calm Calm - N/A   Mostly Cloudy
1:15 AM 59.0 °F 57.2 °F 94% 30.11 in 10.0 mi South 6.9 mph - N/A   Mostly Cloudy
1:35 AM 60.8 °F 59.0 °F 94% 30.10 in 10.0 mi SSW 9.2 mph - N/A   Mostly Cloudy
1:55 AM 60.8 °F 59.0 °F 94% 30.10 in 10.0 mi SSW 9.2 mph - N/A   Mostly Cloudy
2:15 AM 60.8 °F 59.0 °F 94% 30.10 in 10.0 mi South 9.2 mph - N/A   Scattered Clouds
2:35 AM 59.0 °F 59.0 °F 100% 30.10 in 10.0 mi SSW 8.1 mph - N/A   Clear
2:55 AM 59.0 °F 59.0 °F 100% 30.10 in 10.0 mi SSW 8.1 mph - N/A   Clear
3:15 AM 59.0 °F 59.0 °F 100% 30.09 in 10.0 mi SSW 6.9 mph - N/A   Clear
3:35 AM 59.0 °F 59.0 °F 100% 30.09 in 10.0 mi SSW 9.2 mph - N/A   Scattered Clouds
3:55 AM 59.0 °F 59.0 °F 100% 30.09 in 10.0 mi SSW 8.1 mph - N/A   Clear
4:15 AM 57.2 °F 57.2 °F 100% 30.08 in 10.0 mi SSW 11.5 mph - N/A   Clear
4:35 AM 59.0 °F 59.0 °F 100% 30.07 in 10.0 mi SSW 9.2 mph - N/A   Clear
4:55 AM 59.0 °F 59.0 °F 100% 30.07 in 10.0 mi SSW 10.4 mph - N/A   Scattered Clouds
5:15 AM 59.0 °F 59.0 °F 100% 30.08 in 10.0 mi SW 10.4 mph - N/A   Scattered Clouds
5:35 AM 59.0 °F 59.0 °F 100% 30.08 in 10.0 mi SW 11.5 mph - N/A   Mostly Cloudy
5:55 AM 59.0 °F 59.0 °F 100% 30.08 in 10.0 mi SW 13.8 mph 19.6 mph N/A   Overcast
6:15 AM 59.0 °F 59.0 °F 100% 30.07 in 10.0 mi SSW 12.7 mph - N/A   Mostly Cloudy
6:35 AM 59.0 °F 59.0 °F 100% 30.07 in 10.0 mi SW 15.0 mph 21.9 mph N/A   Clear
6:55 AM 59.0 °F 59.0 °F 100% 30.07 in 10.0 mi SW 13.8 mph 27.6 mph N/A   Scattered Clouds
7:15 AM 59.0 °F 59.0 °F 100% 30.08 in 10.0 mi SW 12.7 mph 19.6 mph N/A   Scattered Clouds
7:35 AM 59.0 °F 59.0 °F 100% 30.08 in 10.0 mi SW 13.8 mph 19.6 mph N/A   Scattered Clouds
7:55 AM 59.0 °F 59.0 °F 100% 30.08 in 10.0 mi SW 11.5 mph - N/A   Clear
8:15 AM 60.8 °F 59.0 °F 94% 30.08 in 10.0 mi SW 11.5 mph 18.4 mph N/A   Clear
8:35 AM 60.8 °F 59.0 °F 94% 30.09 in 10.0 mi SW 11.5 mph - N/A   Clear
8:55 AM 62.6 °F 59.0 °F 88% 30.10 in 10.0 mi SW 12.7 mph 17.3 mph N/A   Clear
9:15 AM 62.6 °F 59.0 °F 88% 30.10 in 10.0 mi WSW 9.2 mph - N/A   Clear
9:35 AM 64.4 °F 59.0 °F 83% 30.10 in 10.0 mi WSW 10.4 mph 16.1 mph N/A   Clear
9:55 AM 66.2 °F 57.2 °F 73% 30.10 in 10.0 mi SW 16.1 mph 21.9 mph N/A   Scattered Clouds
10:15 AM 68.0 °F 59.0 °F 73% 30.10 in 10.0 mi WSW 20.7 mph 24.2 mph N/A   Clear
10:35 AM 69.8 °F 57.2 °F 64% 30.10 in 10.0 mi WSW 17.3 mph 25.3 mph N/A   Clear
10:55 AM 71.6 °F 57.2 °F 60% 30.10 in 10.0 mi WSW 13.8 mph 24.2 mph N/A   Clear
11:15 AM 71.6 °F 55.4 °F 57% 30.10 in 10.0 mi WSW 19.6 mph 26.5 mph N/A   Clear
11:35 AM 71.6 °F 55.4 °F 57% 30.10 in 10.0 mi WSW 16.1 mph 24.2 mph N/A   Clear
11:55 AM 73.4 °F 55.4 °F 53% 30.09 in 10.0 mi WSW 12.7 mph 18.4 mph N/A   Scattered Clouds
12:15 PM 75.2 °F 55.4 °F 50% 30.08 in 10.0 mi WSW 17.3 mph 21.9 mph N/A   Scattered Clouds
12:35 PM 75.2 °F 53.6 °F 47% 30.08 in 10.0 mi WSW 15.0 mph 23.0 mph N/A   Clear
12:55 PM 75.2 °F 55.4 °F 50% 30.06 in 10.0 mi WSW 15.0 mph 18.4 mph N/A   Clear
1:15 PM 77.0 °F 55.4 °F 47% 30.05 in 10.0 mi WSW 12.7 mph 21.9 mph N/A   Clear
1:35 PM 77.0 °F 55.4 °F 47% 30.04 in 10.0 mi SW 13.8 mph 18.4 mph N/A   Scattered Clouds
1:55 PM 78.8 °F 55.4 °F 44% 30.04 in 10.0 mi West 16.1 mph 20.7 mph N/A   Scattered Clouds
2:15 PM 78.8 °F 55.4 °F 44% 30.03 in 10.0 mi West 13.8 mph 18.4 mph N/A   Clear
2:35 PM 77.0 °F 53.6 °F 44% 30.03 in 10.0 mi West 12.7 mph 23.0 mph N/A   Scattered Clouds
2:55 PM 77.0 °F 53.6 °F 44% 30.03 in 10.0 mi WSW 15.0 mph 19.6 mph N/A   Clear
3:15 PM 78.8 °F 55.4 °F 44% 30.03 in 10.0 mi WSW 15.0 mph 19.6 mph N/A   Clear
3:35 PM 78.8 °F 55.4 °F 44% 30.03 in 10.0 mi WSW 11.5 mph 18.4 mph N/A   Scattered Clouds
3:55 PM 78.8 °F 55.4 °F 44% 30.03 in 10.0 mi WSW 9.2 mph - N/A   Scattered Clouds
4:15 PM 77.0 °F 55.4 °F 47% 30.03 in 10.0 mi West 11.5 mph 17.3 mph N/A   Clear
4:35 PM 75.2 °F 53.6 °F 47% 30.04 in 10.0 mi West 9.2 mph - N/A   Scattered Clouds
4:55 PM 73.4 °F 55.4 °F 53% 30.04 in 10.0 mi West 10.4 mph - N/A   Clear
5:15 PM 73.4 °F 55.4 °F 53% 30.04 in 10.0 mi WNW 6.9 mph - N/A   Clear
5:35 PM 73.4 °F 55.4 °F 53% 30.05 in 10.0 mi West 4.6 mph - N/A   Clear
5:55 PM 71.6 °F 55.4 °F 57% 30.05 in 10.0 mi WNW 3.5 mph - N/A   Clear
6:15 PM 69.8 °F 55.4 °F 60% 30.07 in 10.0 mi West 3.5 mph - N/A   Clear
6:35 PM 66.2 °F 55.4 °F 68% 30.08 in 10.0 mi SW 5.8 mph - N/A   Scattered Clouds
6:55 PM 68.0 °F 57.2 °F 68% 30.09 in 10.0 mi Calm Calm - N/A   Scattered Clouds
7:15 PM 66.2 °F 57.2 °F 73% 30.09 in 10.0 mi WSW 4.6 mph - N/A   Mostly Cloudy
7:35 PM 64.4 °F 57.2 °F 77% 30.10 in 10.0 mi WSW 3.5 mph - N/A   Overcast
7:55 PM 64.4 °F 57.2 °F 77% 30.10 in 10.0 mi WSW 4.6 mph - N/A   Mostly Cloudy
8:15 PM 64.4 °F 55.4 °F 73% 30.10 in 10.0 mi WSW 4.6 mph - N/A   Scattered Clouds
8:35 PM 62.6 °F 55.4 °F 77% 30.10 in 10.0 mi SW 3.5 mph - N/A   Clear
8:55 PM 62.6 °F 55.4 °F 77% 30.11 in 10.0 mi West 3.5 mph - N/A   Clear
9:15 PM 60.8 °F 55.4 °F 82% 30.11 in 10.0 mi Calm Calm - N/A   Clear
9:35 PM 60.8 °F 57.2 °F 88% 30.11 in 10.0 mi Calm Calm - N/A   Clear
9:55 PM 62.6 °F 57.2 °F 82% 30.12 in 10.0 mi Calm Calm - N/A   Clear
10:15 PM 59.0 °F 55.4 °F 88% 30.13 in 10.0 mi Calm Calm - N/A   Clear
10:35 PM 59.0 °F 57.2 °F 94% 30.13 in 10.0 mi Calm Calm - N/A   Clear
10:55 PM 57.2 °F 53.6 °F 88% 30.13 in 10.0 mi Calm Calm - N/A   Clear
11:15 PM 57.2 °F 55.4 °F 94% 30.13 in 10.0 mi Calm Calm - N/A   Clear
11:35 PM 55.4 °F 55.4 °F 100% 30.12 in 10.0 mi Calm Calm - N/A   Clear
11:55 PM 55.4 °F 55.4 °F 100% 30.13 in 10.0 mi Calm Calm - N/A   Clear